Tracking 17631 objects as of 4-May-2016
HD Live streaming from Space Station
objects crossing your sky now

ATLAS CENTAUR DEB

Track ATLAS CENTAUR DEB now!


NORAD ID: 25253
Int'l Code: 1978-068C
Perigee: -6,371.0 km
Apogee: -6,371.0 km
Inclination: 21.2 °
Period: 0.0 minutes
Semi major axis: 0 km
RCS: 0.1092 m2 (medium)
Launch date: June 29, 1978
Source: United States (US)
Launch site: AIR FORCE EASTERN TEST RANGE (AFETR)

Note: This is SATELLITE DEBRIS
Your satellite tracking list
Your tracking list is empty





NASA's NSSDC Master Catalog

Two Line Element Set (TLE):
1 25253U 78068C   16121.71586546 -.00000029 +00000-0 -28137-2 0  9995
2 25253 021.2108 188.1369 7076932 085.8018 337.0393 02.24995851154657
Source of the keplerian elements: AFSPC

N2YO: 263